CAPE
1973 1822 1801 1783 1962 1855 1514 1518 1764 2111 1807 1514 1173 1183 1032 855 811 1117 1264 1237 1021 927
1747 1631 1743 2026 1803 1905 2159 2115 1954 2043 1572 1680 1640 1485 1382 1041 1091 1152 1395 1385 1549 1333
1540 1566 1407 1010 1566 1806 2024 1371 795 492 955 1428 1351 1824 1663 1023 1053 831 523 271 354 301
209 401 383 242 885 1292 1515 1137 230 2 3 13 588 1283 1354 1064 976 655 408 273 179 131
108 206 34 69 273 635 726 575 498 115 0 0 94 846 1023 615 118 189 90 26 2 1
16 5 6 54 113 192 255 80 163 158 0 3 30 592 758 281 34 2 0 0 0 0
28 1 62 206 368 400 313 42 7 81 110 221 474 432 70 29 7 1 0 0 0 0
596 294 405 381 164 228 88 50 108 229 146 188 92 61 133 194 72 8 6 8 5 3
514 456 233 188 171 17 23 201 351 328 247 264 228 0 0 0 0 1 8 2 1 5
112 64 9 11 19 0 0 2 15 76 69 92 108 0 0 0 0 0 2 4 11 22
0 0 0 0 0 0 0 0 0 0 0 0 0 0 0 0 0 0 0 0 2 2
0 0 0 0 0 0 0 0 0 0 0 0 0 0 0 0 0 0 0 0 0 5
0 0 0 0 0 0 0 0 0 0 0 0 0 0 0 0 0 0 0 0 0 0
0 0 0 0 0 0 0 0 0 0 0 0 0 0 0 0 0 0 0 0 0 0
CIN
-31 -23 -16 -9 -1 -2 -12 -1 -6 -1 -2 -6 -12 -3 -5 -4 -2 -1 0 -3 -1 -2
-47 -91 -18 -8 -28 -8 -9 -4 -9 -1 -7 0 0 -1 -1 -1 -3 -1 0 -1 -1 -2
-84 -46 -65 -49 -10 -33 -34 -81 -132 -160 -48 -11 -1 0 0 -2 -2 -1 -5 -2 -9 -12
-262 -157 -176 -157 -2 -2 -13 -77 -209 -72 -201 -242 -62 -1 0 -4 0 -2 -11 -7 -17 -46
-131 -71 -158 -141 -13 0 -11 -54 -63 -134 0 0 -124 -2 -1 -4 -29 -29 -60 -105 -4 -6
-161 -169 -216 -177 -56 -32 -7 -118 -85 -150 0 -19 -88 -4 -5 -29 -78 -70 0 0 0 0
-248 -209 -194 -47 0 -4 -1 -90 -48 -111 -96 -35 -4 -12 -104 -59 -71 -23 0 0 0 0
-37 -68 -16 0 -19 -28 -48 -62 -58 -22 -88 -58 -60 -28 -33 -11 -35 -29 -2 -1 -1 -2
-55 -38 -54 -34 -54 -119 -124 -58 -35 -28 -40 -16 -16 0 0 0 0 0 -2 -1 0 -1
-118 -119 -105 -125 -127 0 0 0 -95 -74 -46 -37 -15 0 0 0 0 -1 -1 -6 -1 -2
0 0 0 0 0 0 0 0 0 0 0 0 0 0 0 0 0 0 0 -1 -1 -1
0 0 0 0 0 0 0 0 0 0 0 0 0 0 0 0 0 0 0 0 0 -1
0 0 0 0 0 0 0 0 0 0 0 0 0 0 0 0 0 0 0 0 0 -2
0 0 0 0 0 0 0 0 0 0 0 0 0 0 0 0 0 0 0 0 0 0
Wind_Speed
12 13 13 14 17 16 17 16 12 10 10 10 11 13 17 15 16 10 9 9 9 12
16 16 21 21 20 18 17 15 13 14 13 14 13 15 15 16 16 21 16 15 13 7
13 17 22 22 21 16 15 14 14 15 17 17 18 17 18 16 15 20 24 23 22 24
17 14 16 25 23 19 18 19 18 13 22 23 25 23 21 23 23 23 26 28 28 28
13 23 25 27 27 24 20 21 18 21 26 28 30 31 25 26 27 26 28 31 31 32
13 21 22 24 23 22 17 19 18 16 20 10 36 34 25 26 26 26 27 30 32 33
17 17 15 13 17 17 14 7 11 16 12 11 34 21 22 23 26 28 29 30 32 33
16 15 16 19 19 19 18 15 10 9 13 19 26 27 23 25 29 33 35 34 34 34
17 16 17 18 18 18 17 17 18 18 18 21 23 26 30 33 35 36 36 37 36 36
17 17 19 20 20 21 20 21 22 23 23 26 28 29 33 35 36 37 38 39 40 41
18 19 21 22 23 24 26 27 27 28 30 31 33 34 37 39 41 41 42 42 43 44
19 20 22 25 27 29 30 31 31 32 34 35 36 36 38 40 41 42 41 39 38 41
21 23 25 27 27 28 30 30 31 32 33 34 36 36 34 36 37 40 39 40 39 37
25 27 28 28 29 30 32 33 34 35 35 36 35 36 36 37 39 41 43 43 41 39
Wind_Direction
315 316 316 315 309 315 317 325 354 13 14 16 358 354 322 190 181 126 122 147 156 194
302 304 300 300 301 303 308 320 332 336 342 341 341 328 330 332 329 307 343 348 2 36
303 303 295 299 297 299 304 309 314 319 322 323 319 317 311 328 339 322 308 316 324 321
311 312 302 288 295 298 298 297 298 299 305 310 298 298 302 300 311 315 308 306 307 311
324 305 299 285 290 295 304 303 305 298 303 309 279 271 292 298 303 310 309 305 307 307
37 324 311 304 295 291 298 295 306 311 317 311 243 256 295 302 308 313 315 312 311 310
21 33 29 14 336 321 324 310 297 298 306 301 234 296 306 311 311 311 312 312 311 310
24 41 25 354 339 339 350 349 17 333 300 290 283 293 306 307 307 306 306 307 308 308
17 20 15 6 2 3 351 332 329 317 310 303 304 307 306 304 304 305 305 305 306 307
9 6 357 352 347 341 338 329 322 316 313 309 307 308 306 305 305 304 303 303 302 301
355 349 346 341 335 331 326 322 319 315 311 309 307 306 305 304 302 301 300 299 299 298
349 346 341 335 330 325 323 320 318 315 312 309 307 307 307 306 304 302 302 304 304 302
341 338 335 333 331 329 327 325 323 321 318 315 312 313 315 314 311 307 308 306 305 306
331 329 329 329 329 327 325 322 320 319 319 318 319 317 317 316 314 311 309 307 306 306